Time,TemperatureF,DewpointF,PressureIn,WindDirection,WindDirectionDegrees,WindSpeedMPH,WindSpeedGustMPH,Humidity,HourlyPrecipIn,Conditions,Clouds,dailyrainin,SolarRadiationWatts/m^2,SoftwareType,DateUTC
2014-01-02 00:42:00,46.0,31.0,-100.00,NNE,32,5.0,13.0,55,-99.99,,,0.00,89.000000,,2014-01-02 00:42:00,
2014-01-02 00:52:00,46.0,31.0,-100.00,NNE,32,5.0,13.0,55,-99.99,,,0.00,89.000000,,2014-01-02 00:52:00,
2014-01-02 01:02:00,46.0,31.0,-100.00,NNE,32,5.0,13.0,55,-99.99,,,0.00,89.000000,,2014-01-02 01:02:00,
2014-01-02 01:42:00,45.0,28.0,-100.00,NNE,26,4.0,12.0,52,0.00,,,0.00,9.000000,,2014-01-02 01:42:00,
2014-01-02 01:52:00,45.0,28.0,-100.00,NNE,26,4.0,12.0,52,0.00,,,0.00,9.000000,,2014-01-02 01:52:00,
2014-01-02 02:01:00,45.0,28.0,-100.00,NNE,26,4.0,12.0,52,0.00,,,0.00,9.000000,,2014-01-02 02:01:00,
2014-01-02 02:52:00,46.0,30.0,-100.00,NNE,27,5.0,8.0,53,0.00,,,0.00,0.000000,,2014-01-02 02:52:00,
2014-01-02 03:02:00,46.0,30.0,-100.00,NNE,27,5.0,8.0,53,0.00,,,0.00,0.000000,,2014-01-02 03:02:00,
2014-01-02 03:43:00,45.0,31.0,-100.00,NNE,32,4.0,9.0,58,0.00,,,0.00,0.000000,,2014-01-02 03:43:00,
2014-01-02 03:53:00,45.0,31.0,-100.00,NNE,32,4.0,9.0,58,0.00,,,0.00,0.000000,,2014-01-02 03:53:00,
2014-01-02 04:03:00,45.0,31.0,-100.00,NNE,32,4.0,9.0,58,0.00,,,0.00,0.000000,,2014-01-02 04:03:00,
2014-01-02 04:43:00,44.0,31.0,-100.00,NNE,23,7.0,14.0,60,0.00,,,0.00,0.000000,,2014-01-02 04:43:00,
2014-01-02 04:53:00,44.0,31.0,-100.00,NNE,23,7.0,14.0,60,0.00,,,0.00,0.000000,,2014-01-02 04:53:00,
2014-01-02 05:02:00,44.0,31.0,-100.00,NNE,23,7.0,14.0,60,0.00,,,0.00,0.000000,,2014-01-02 05:02:00,
2014-01-02 05:42:00,43.0,30.0,-100.00,NNE,31,6.0,12.0,59,0.00,,,-99.99,0.000000,,2014-01-02 05:42:00,
2014-01-02 05:53:00,43.0,30.0,-100.00,NNE,31,6.0,12.0,59,0.00,,,-99.99,0.000000,,2014-01-02 05:53:00,
2014-01-02 06:02:00,43.0,30.0,-100.00,NNE,31,6.0,12.0,59,0.00,,,-99.99,0.000000,,2014-01-02 06:02:00,
2014-01-02 06:42:00,43.0,29.0,-100.00,NNE,27,7.0,13.0,58,0.00,,,0.00,0.000000,,2014-01-02 06:42:00,
2014-01-02 06:53:00,43.0,29.0,-100.00,NNE,27,7.0,13.0,58,0.00,,,0.00,0.000000,,2014-01-02 06:53:00,
2014-01-02 07:02:00,43.0,29.0,-100.00,NNE,27,7.0,13.0,58,0.00,,,0.00,0.000000,,2014-01-02 07:02:00,
2014-01-02 07:42:00,41.0,25.0,-100.00,ENE,77,2.0,11.0,53,0.00,,,-99.99,0.000000,,2014-01-02 07:42:00,
2014-01-02 07:52:00,41.0,25.0,-100.00,ENE,77,2.0,11.0,53,0.00,,,-99.99,0.000000,,2014-01-02 07:52:00,
2014-01-02 08:02:00,41.0,25.0,-100.00,ENE,77,2.0,11.0,53,0.00,,,-99.99,0.000000,,2014-01-02 08:02:00,
2014-01-02 08:42:00,44.0,22.0,-100.00,NE,37,4.0,6.0,41,0.00,,,0.00,0.000000,,2014-01-02 08:42:00,
2014-01-02 08:53:00,44.0,22.0,-100.00,NE,37,4.0,6.0,41,0.00,,,0.00,0.000000,,2014-01-02 08:53:00,
2014-01-02 09:02:00,44.0,22.0,-100.00,NE,37,4.0,6.0,41,0.00,,,0.00,0.000000,,2014-01-02 09:02:00,
2014-01-02 11:42:00,40.0,20.0,-100.00,ESE,109,1.0,7.0,45,-99.99,,,0.00,0.000000,,2014-01-02 11:42:00,
2014-01-02 11:53:00,40.0,20.0,-100.00,ESE,109,1.0,7.0,45,-99.99,,,0.00,0.000000,,2014-01-02 11:53:00,
2014-01-02 12:02:00,40.0,20.0,-100.00,ESE,109,1.0,7.0,45,-99.99,,,0.00,0.000000,,2014-01-02 12:02:00,
2014-01-02 17:43:00,46.0,18.0,-100.00,NE,52,1.0,3.0,32,0.00,,,0.00,35.000000,,2014-01-02 17:43:00,
2014-01-02 22:43:00,52.0,24.0,-100.00,WNW,282,1.0,7.0,33,0.00,,,0.00,179.000000,,2014-01-02 22:43:00,
2014-01-02 23:43:00,49.0,29.0,-100.00,ENE,57,1.0,6.0,45,0.00,,,0.00,139.000000,,2014-01-02 23:43:00,
2014-01-02 23:53:00,49.0,29.0,-100.00,ENE,57,1.0,6.0,45,0.00,,,0.00,139.000000,,2014-01-02 23:53:00,